Location: Quedlinburg
(51.7921°N, 11.1414°E)
Time: 07:54:19
(UTC+02:00)

SO-50 - Pass Details

Date: 09 March 2026
Orbit: 567 x 673 km, 64.6° (Epoch: 13 April)

Event Time Altitude Azimuth Distance (km) Brightness Sun altitude
Exits shadow 05:04:09 28° 253° (WSW) 1,246 ? -16.1°
Maximum altitude 05:04:37 29° 242° (WSW) 1,230 ? -16.0°
Drops below altitude 10° 05:08:40 10° 183° (S) 2,077 ? -15.4°
Sets 05:11:11 0° 172° (S) 2,971 ? -15.0°
